Hourly Data Report for October 03, 2013

All times are specified in Local Standard Time (LST). Add 1 hour to adjust for Daylight Saving Time where and when it is observed.

GJOA HAVEN A
NUNAVUT

68°38'08.000" N
95°51'01.000" W
46.90 m
2302337
71597
YHK

Download Data

Hourly Data (October 2013)
Hourly Data Report for October 3, 2013
Temp Definition
°C
Dew Point Temp Definition
°C
Rel Hum Definition
%
Wind Dir Definition
10's deg

Wind Spd Definition
km/h
Visibility Definition
km
Stn Press Definition
kPa
Hmdx Definition


Wind Chill Definition


Weather Definition


TIME
00:00 Legend Double Dagger -5.7 -8.6 80 1 24 16.1 101.97   -13 LegendNANA
01:00 Legend Double Dagger -5.4 -8.1 81 36 22 16.1 101.98   -12 LegendNANA
02:00 Legend Double Dagger -4.9 -9.2 72 36 32 16.1 101.97   -13 LegendNANA
03:00 Legend Double Dagger -4.9 -9.2 72 36 30 16.1 101.99   -13 LegendNANA
04:00 Legend Double Dagger -5.0 -10.0 68 1 35 16.1 101.99   -14 LegendNANA
05:00 Legend Double Dagger -5.1 -9.3 73 1 33 16.1 102.01   -13 LegendNANA
06:00 Legend Double Dagger -5.1 -8.9 75 36 33 16.1 102.03   -13 LegendNANA
07:00 Legend Double Dagger -5.0 -9.3 72 1 35 16.1 102.06   -14 LegendNANA
08:00 Legend Double Dagger -4.3 -9.0 70 1 33 16.1 102.07   -12 LegendNANA
09:00 Legend Double Dagger -4.2 -8.4 73 36 30 16.1 102.10   -12 LegendNANA
10:00 Legend Double Dagger -4.1 -8.0 74 35 32 16.1 102.10   -12 LegendNANA
11:00 Legend Double Dagger -4.9 -8.5 76 1 33 16.1 102.13   -13 LegendNANA
12:00 Legend Double Dagger -4.5 -9.1 70 1 28 16.1 102.17   -12 LegendNANA
13:00 Legend Double Dagger -4.3 -9.1 70 35 28 16.1 102.18   -12 LegendNANA
14:00 Legend Double Dagger -4.7 -9.0 72 36 28 16.1 102.21   -12 LegendNANA
15:00 Legend Double Dagger -5.0 -8.8 75 35 24 16.1 102.24   -12 LegendNANA
16:00 Legend Double Dagger -5.4 -8.5 79 35 18 16.1 102.25   -12 LegendNANA
17:00 Legend Double Dagger -5.8 -8.0 85 35 21 16.1 102.29   -13 LegendNANA
18:00 Legend Double Dagger -6.3 -7.8 89 35 18 16.1 102.31   -13 LegendNANA
19:00 Legend Double Dagger -6.6 -8.3 88 36 18 16.1 102.31   -13 LegendNANA
20:00 Legend Double Dagger -7.0 -8.4 90 36 17 16.1 102.33   -13 LegendNANA
21:00 Legend Double Dagger -6.6 -8.6 86 1 18 16.1 102.34   -13 LegendNANA
22:00 Legend Double Dagger -6.9 -9.0 85 1 18 16.1 102.34   -14 LegendNANA
23:00 Legend Double Dagger -7.9 -8.7 94 35 17 16.1 102.36   -15 LegendNANA

Notes on Data Quality.

Legend

  • E = Estimated
  • M = Missing
  • NA = Not Available
  • ‡ = Partner data that is not subject to review by the National Climate Archives
Date modified: